FW2402 Weather Reports


Display with metric or nautical units.
time (UTC)temp
F
wind
direction
speed
MPH
gust
MPH
rain 1hr
in
rain 24hr
in
rain mn
in
humidity
%
barometer
mb
20260905171023 83 233 2.0 13.0 0.00 0.61 0.01 78 1013.4
20260905170523 84 225 8.0 19.0 0.00 0.61 0.01 78 1013.3
20260905170045 85 247 11.0 19.0 0.00 0.61 0.01 78 1013.3
20260905165519 88 238 3.0 9.0 0.00 0.61 0.01 76 1013.3
20260905165026 89 244 2.0 6.0 0.00 0.61 0.01 77 1013.3
20260905164553 89 0 1.0 8.0 0.00 0.61 0.01 80 1013.5
20260905164025 88 0 3.0 8.0 0.00 0.61 0.01 74 1013.5
20260905163528 88 247 5.0 8.0 0.00 0.61 0.01 78 1013.7
20260905163049 87 268 3.0 8.0 0.00 0.61 0.01 77 1013.7
20260905162523 87 272 1.0 8.0 0.00 0.61 0.01 77 1013.8
20260905162023 87 276 3.0 8.0 0.00 0.61 0.01 78 1013.9
20260905161600 88 251 4.0 11.0 0.00 0.61 0.01 76 1014.0
20260905161022 88 240 6.0 11.0 0.00 0.61 0.01 77 1014.0
20260905160524 87 249 6.0 9.0 0.00 0.61 0.01 78 1014.2
20260905160048 88 266 1.0 9.0 0.00 0.61 0.01 80 1014.2
20260905155528 87 247 5.0 9.0 0.00 0.61 0.01 79 1014.2
20260905155024 86 284 2.0 7.0 0.00 0.61 0.01 81 1014.3
20260905154546 87 248 1.0 10.0 0.00 0.61 0.01 79 1014.1
20260905154032 86 238 4.0 13.0 0.00 0.61 0.01 80 1014.3
20260905153525 87 265 3.0 13.0 0.00 0.61 0.01 77 1014.3
20260905153047 87 251 5.0 13.0 0.00 0.61 0.01 80 1014.1
20260905152523 87 236 4.0 11.0 0.00 0.61 0.01 80 1014.2
20260905152023 87 246 2.0 9.0 0.00 0.61 0.01 80 1014.1
20260905151544 87 0 3.0 9.0 0.00 0.61 0.01 85 1014.4
20260905151020 86 264 5.0 9.0 0.00 0.61 0.01 82 1014.5
20260905150523 86 248 2.0 7.0 0.00 0.61 0.01 83 1014.4
20260905150040 86 292 1.0 8.0 0.00 0.61 0.01 84 1014.4
20260905145525 86 250 4.0 11.0 0.00 0.61 0.01 84 1014.4
20260905145024 85 234 7.0 11.0 0.00 0.61 0.01 83 1014.4
20260905144541 85 267 5.0 10.0 0.00 0.61 0.01 84 1014.3
20260905144025 85 284 6.0 10.0 0.00 0.61 0.01 84 1014.3
20260905143524 85 255 2.0 8.0 0.00 0.61 0.01 87 1014.4
20260905143047 84 250 0.0 8.0 0.00 0.61 0.01 88 1014.4
20260905142522 85 242 2.0 8.0 0.00 0.61 0.01 89 1014.4
20260905142023 84 253 3.0 7.0 0.00 0.61 0.01 88 1014.4
20260905141542 83 243 2.0 6.0 0.00 0.61 0.01 89 1014.4
20260905141026 83 329 0.0 5.0 0.01 0.61 0.01 90 1014.5
20260905140523 83 245 1.0 5.0 0.01 0.61 0.01 90 1014.3
20260905140041 82 238 2.0 4.0 0.01 0.61 0.01 91 1014.4
20260905135525 82 257 2.0 4.0 0.01 0.61 0.01 93 1014.4
20260905135025 82 0 0.0 2.0 0.01 0.61 0.01 93 1014.4
20260905134544 82 0 0.0 2.0 0.01 0.61 0.01 95 1014.3
20260905134025 81 0 0.0 2.0 0.01 0.61 0.01 96 1014.3
20260905133522 80 0 0.0 4.0 0.01 0.61 0.01 96 1014.3
20260905133042 80 0 0.0 5.0 0.01 0.61 0.01 97 1014.4
20260905132523 79 104 1.0 5.0 0.01 0.61 0.01 97 1014.3
20260905132021 79 137 1.0 4.0 0.01 0.61 0.01 97 1014.3
20260905131540 78 0 1.0 4.0 0.01 0.61 0.01 97 1014.1
20260905131024 78 241 1.0 4.0 0.00 0.60 0.00 97 1014.2
20260905130524 78 0 0.0 1.0 0.00 0.60 0.00 97 1014.2
20260905130044 77 106 0.0 2.0 0.00 0.60 0.00 97 1014.2
20260905125526 77 0 0.0 2.0 0.00 0.60 0.00 97 1014.1
20260905125025 78 0 0.0 3.0 0.00 0.60 0.00 97 1014.2
20260905124542 77 0 0.0 4.0 0.00 0.60 0.00 97 1014.2
20260905124023 77 0 0.0 4.0 0.00 0.60 0.00 97 1014.2
20260905123520 77 0 0.0 3.0 0.00 0.60 0.00 97 1014.1
20260905123103 77 175 0.0 2.0 0.00 0.60 0.00 97 1014.1
20260905122525 76 0 0.0 2.0 0.00 0.60 0.00 97 1014.1
20260905122025 76 0 0.0 2.0 0.00 0.60 0.00 97 1014.0
20260905121553 76 0 0.0 0.0 0.00 0.60 0.00 97 1014.2
20260905121025 76 0 0.0 0.0 0.00 0.60 0.00 97 1014.1
20260905120524 76 0 0.0 0.0 0.00 0.60 0.00 97 1014.1
20260905120042 75 0 0.0 0.0 0.00 0.60 0.00 97 1014.0
20260905115526 75 0 0.0 0.0 0.00 0.60 0.00 97 1013.9
20260905115022 75 0 0.0 0.0 0.00 0.60 0.00 97 1013.8
20260905114542 75 0 0.0 0.0 0.00 0.60 0.00 97 1013.8
20260905114024 74 0 0.0 0.0 0.00 0.60 0.00 97 1013.8
20260905113525 74 0 0.0 0.0 0.00 0.60 0.00 97 1013.7
20260905113041 74 0 0.0 0.0 0.00 0.60 0.00 97 1013.6
20260905112525 74 0 0.0 0.0 0.00 0.60 0.00 97 1013.4
20260905112024 74 0 0.0 0.0 0.00 0.60 0.00 97 1013.5
20260905111543 74 0 0.0 0.0 0.00 0.60 0.00 97 1013.5
20260905111024 74 0 0.0 0.0 0.00 0.60 0.00 97 1013.6
20260905110523 74 0 0.0 0.0 0.00 0.60 0.00 97 1013.7
20260905110041 74 0 0.0 0.0 0.00 0.60 0.00 97 1013.6
20260905105518 74 0 0.0 0.0 0.00 0.60 0.00 97 1013.5
20260905105021 74 0 0.0 0.0 0.00 0.60 0.00 97 1013.3
20260905104544 74 0 0.0 0.0 0.00 0.60 0.00 97 1013.3
20260905104024 74 0 0.0 0.0 0.00 0.60 0.00 97 1013.3
20260905103527 74 0 0.0 2.0 0.00 0.60 0.00 97 1013.4
20260905103041 74 0 0.0 2.0 0.00 0.60 0.00 97 1013.4
20260905102525 74 116 0.0 2.0 0.00 0.60 0.00 97 1013.4
20260905102026 74 0 0.0 0.0 0.00 0.60 0.00 97 1013.3
20260905101557 74 0 0.0 0.0 0.00 0.60 0.00 97 1013.3
20260905101022 74 0 0.0 0.0 0.00 0.60 0.00 97 1013.3
20260905100523 74 0 0.0 0.0 0.00 0.60 0.00 97 1013.3
20260905100114 74 0 0.0 0.0 0.00 0.60 0.00 97 1013.2
20260905095526 75 0 0.0 0.0 0.00 0.60 0.00 97 1013.3
20260905095024 74 0 0.0 0.0 0.00 0.60 0.00 97 1013.2
20260905094548 74 0 0.0 0.0 0.00 0.60 0.00 97 1013.2
20260905094024 74 0 0.0 0.0 0.00 0.60 0.00 97 1013.1
20260905093525 74 0 0.0 0.0 0.00 0.60 0.00 97 1013.1
20260905093044 74 0 0.0 0.0 0.00 0.60 0.00 97 1013.1
20260905092526 74 0 0.0 0.0 0.00 0.60 0.00 97 1013.1
20260905092026 74 0 0.0 0.0 0.00 0.60 0.00 97 1013.1
20260905091554 74 0 0.0 0.0 0.00 0.60 0.00 97 1013.0
20260905091021 74 0 0.0 0.0 0.00 0.60 0.00 97 1013.0
20260905090525 74 0 0.0 0.0 0.00 0.60 0.00 97 1013.0
20260905090040 74 0 0.0 0.0 0.00 0.60 0.00 97 1013.0
20260905085527 75 0 0.0 0.0 0.00 0.60 0.00 97 1013.0
20260905085025 75 0 0.0 0.0 0.00 0.60 0.00 97 1012.9
20260905084549 75 0 0.0 0.0 0.00 0.60 0.00 97 1012.8
20260905084024 75 0 0.0 0.0 0.00 0.60 0.00 97 1012.8
20260905083520 75 0 0.0 0.0 0.00 0.60 0.00 97 1012.8
20260905083103 75 0 0.0 0.0 0.00 0.60 0.00 97 1012.8
20260905082523 75 0 0.0 0.0 0.00 0.60 0.00 97 1012.9
20260905082021 75 0 0.0 0.0 0.00 0.60 0.00 97 1012.9
20260905081541 75 0 0.0 0.0 0.00 0.60 0.00 97 1013.0
20260905081021 75 0 0.0 0.0 0.00 0.60 0.00 97 1013.0
20260905080527 75 0 0.0 0.0 0.00 0.60 0.00 97 1013.0
20260905080048 75 0 0.0 0.0 0.00 0.60 0.00 97 1013.0
20260905075523 75 0 0.0 0.0 0.00 0.60 0.00 97 1013.1
20260905075023 75 0 0.0 0.0 0.00 0.60 0.00 97 1013.0
20260905074547 75 0 0.0 0.0 0.00 0.60 0.00 97 1013.1
20260905074021 75 0 0.0 0.0 0.00 0.60 0.00 97 1013.0
20260905073523 75 0 0.0 0.0 0.00 0.60 0.00 97 1013.1
20260905073053 75 0 0.0 0.0 0.00 0.60 0.00 97 1013.0
20260905072523 75 0 0.0 0.0 0.00 0.60 0.00 97 1013.1
20260905072023 75 0 0.0 0.0 0.00 0.60 0.00 97 1013.1
20260905071543 75 0 0.0 0.0 0.00 0.60 0.00 97 1013.1
20260905071020 75 0 0.0 0.0 0.00 0.60 0.00 97 1013.0
20260905070527 75 0 0.0 0.0 0.00 0.60 0.00 97 1013.2
20260905070051 75 0 0.0 0.0 0.00 0.60 0.00 97 1013.3
20260905065525 75 0 0.0 0.0 0.00 0.60 0.00 97 1013.1
20260905065022 75 0 0.0 0.0 0.00 0.60 0.00 97 1013.3
20260905064607 75 0 0.0 0.0 0.00 0.60 0.00 97 1013.4
20260905064020 75 0 0.0 0.0 0.00 0.60 0.00 97 1013.4
20260905063528 75 0 0.0 0.0 0.00 0.60 0.00 97 1013.4
20260905063042 75 0 0.0 0.0 0.00 0.60 0.00 97 1013.4
20260905062519 75 0 0.0 0.0 0.00 0.60 0.00 97 1013.4
20260905062022 75 0 0.0 0.0 0.00 0.60 0.00 97 1013.5
20260905061545 75 0 0.0 0.0 0.00 0.60 0.00 97 1013.5
20260905061021 75 0 0.0 0.0 0.00 0.60 0.00 97 1013.5
20260905060524 75 0 0.0 0.0 0.00 0.60 0.00 97 1013.5
20260905060046 75 0 0.0 0.0 0.00 0.60 0.00 97 1013.6
20260905055522 75 0 0.0 0.0 0.00 0.60 0.00 97 1013.7
20260905055023 75 0 0.0 0.0 0.00 0.60 0.00 97 1013.7
20260905054620 75 0 0.0 0.0 0.00 0.60 0.00 97 1013.7
20260905054023 75 0 0.0 0.0 0.00 0.60 0.00 97 1013.8
20260905053523 76 0 0.0 0.0 0.00 0.60 0.00 97 1013.7
20260905053044 76 0 0.0 0.0 0.00 0.60 0.00 97 1013.8
20260905052523 75 0 0.0 0.0 0.00 0.60 0.00 97 1013.9
20260905052024 76 0 0.0 0.0 0.00 0.60 0.00 97 1013.9
20260905051542 76 0 0.0 0.0 0.00 0.60 0.00 97 1013.9
20260905051024 76 0 0.0 0.0 0.00 0.60 0.00 97 1014.0
20260905050527 76 0 0.0 0.0 0.00 0.60 0.00 97 1014.1
20260905050041 76 0 0.0 0.0 0.00 0.60 0.00 97 1014.2
20260905045528 76 0 0.0 0.0 0.00 0.60 0.00 97 1014.2
20260905045024 76 0 0.0 1.0 0.00 0.60 0.00 97 1014.3
20260905044545 76 0 0.0 1.0 0.00 0.60 0.00 97 1014.4
20260905044020 76 0 0.0 0.0 0.00 0.60 0.00 97 1014.4
20260905043523 76 0 0.0 0.0 0.00 0.60 0.00 97 1014.4
20260905043044 76 0 0.0 0.0 0.00 0.60 0.00 97 1014.4
20260905042519 76 0 0.0 0.0 0.00 0.60 0.00 97 1014.4
20260905042024 76 0 0.0 0.0 0.00 0.60 0.00 97 1014.4
20260905041540 76 0 0.0 0.0 0.00 0.60 0.00 97 1014.5
20260905041024 76 0 0.0 0.0 0.00 0.60 0.00 97 1014.5
20260905040528 76 0 0.0 2.0 0.00 0.60 0.00 97 1014.5
20260905040042 76 0 0.0 2.0 0.00 0.60 0.00 97 1014.5
20260905035523 76 153 1.0 2.0 0.00 0.60 0.60 97 1014.5
20260905035022 76 149 0.0 2.0 0.00 0.60 0.60 97 1014.5
20260905034549 76 0 0.0 4.0 0.00 0.60 0.60 97 1014.5
20260905034023 76 0 0.0 4.0 0.00 0.60 0.60 97 1014.6
20260905033523 76 167 0.0 3.0 0.00 0.60 0.60 97 1014.5
20260905033042 76 0 0.0 3.0 0.00 0.60 0.60 96 1014.6
20260905032519 76 146 0.0 5.0 0.00 0.60 0.60 97 1014.5
20260905032024 76 150 1.0 5.0 0.00 0.60 0.60 97 1014.6
20260905031550 76 166 2.0 5.0 0.00 0.60 0.60 97 1014.5
20260905031025 76 151 1.0 5.0 0.00 0.60 0.60 97 1014.6
20260905030525 76 172 1.0 4.0 0.00 0.60 0.60 96 1014.6
20260905030046 76 142 1.0 4.0 0.00 0.60 0.60 96 1014.5
20260905025525 76 137 2.0 4.0 0.00 0.60 0.60 96 1014.6
20260905025039 76 127 1.0 3.0 0.00 0.60 0.60 96 1014.6
20260905024554 76 0 0.0 3.0 0.00 0.60 0.60 97 1014.7
20260905024023 76 0 0.0 0.0 0.00 0.60 0.60 97 1014.8
20260905023518 76 0 0.0 0.0 0.00 0.60 0.60 96 1014.7
20260905023040 76 0 0.0 0.0 0.00 0.60 0.60 96 1014.7
20260905022524 76 0 0.0 0.0 0.00 0.60 0.60 96 1014.7
20260905022028 76 0 0.0 0.0 0.00 0.60 0.60 97 1014.7
20260905021549 76 0 0.0 0.0 0.00 0.60 0.60 96 1014.7
20260905021020 76 0 0.0 0.0 0.00 0.60 0.60 96 1014.6
20260905020527 76 0 0.0 0.0 0.00 0.60 0.60 96 1014.6
20260905020052 76 0 0.0 0.0 0.00 0.60 0.60 96 1014.7
20260905015523 76 0 0.0 0.0 0.00 0.61 0.60 96 1014.5
20260905015020 76 0 0.0 0.0 0.00 0.61 0.60 96 1014.6
20260905014543 76 0 0.0 0.0 0.00 0.61 0.60 96 1014.5
20260905014019 76 0 0.0 0.0 0.00 0.61 0.60 96 1014.4
20260905013526 76 0 0.0 0.0 0.00 0.61 0.60 96 1014.3
20260905013041 76 0 0.0 0.0 0.00 0.61 0.60 96 1014.3
20260905012526 76 0 0.0 0.0 0.00 0.61 0.60 96 1014.3
20260905012024 76 0 0.0 0.0 0.00 0.61 0.60 96 1014.2
20260905011552 76 0 0.0 0.0 0.00 0.61 0.60 96 1014.2
20260905011027 76 0 0.0 0.0 0.00 0.61 0.60 96 1014.3
20260905010525 76 0 0.0 2.0 0.00 0.61 0.60 96 1014.1
20260905010044 76 0 0.0 3.0 0.00 0.61 0.60 96 1014.1
20260905005523 76 49 1.0 3.0 0.00 0.69 0.60 96 1013.9
20260905005020 76 0 0.0 3.0 0.00 0.69 0.60 96 1014.0
20260905004544 76 105 1.0 3.0 0.00 0.69 0.60 96 1014.0
20260905004018 76 0 0.0 3.0 0.00 0.69 0.60 96 1014.0
20260905003528 76 105 1.0 2.0 0.00 0.69 0.60 96 1014.0
20260905003041 76 0 0.0 2.0 0.00 0.69 0.60 96 1013.9
20260905002522 76 181 0.0 1.0 0.00 0.69 0.60 96 1013.9
20260905002024 76 0 0.0 0.0 0.00 0.69 0.60 96 1013.8
20260905001544 76 0 0.0 0.0 0.00 0.69 0.60 96 1013.9
20260905001022 76 0 0.0 2.0 0.00 0.69 0.60 96 1013.9
20260905000526 76 0 0.0 2.0 0.00 0.69 0.60 96 1013.9
20260905000042 76 0 0.0 2.0 0.00 0.69 0.60 96 1014.1
20260904235522 76 0 0.0 5.0 0.00 1.08 0.60 96 1014.1
20260904235020 76 0 1.0 5.0 0.00 1.08 0.60 96 1014.2
20260904234541 76 158 1.0 4.0 0.00 1.08 0.60 96 1014.3
20260904234026 76 219 1.0 4.0 0.00 1.08 0.60 96 1014.3
20260904233524 77 0 0.0 2.0 0.00 1.08 0.60 96 1014.3
20260904233040 77 0 0.0 2.0 0.00 1.08 0.60 96 1014.2
20260904232524 77 0 0.0 1.0 0.00 1.08 0.60 96 1014.3
20260904232022 77 0 0.0 2.0 0.00 1.08 0.60 96 1014.3
20260904231601 77 0 0.0 2.0 0.00 1.08 0.60 96 1014.3
20260904231023 77 0 0.0 0.0 0.00 1.08 0.60 96 1014.2
20260904230523 77 0 0.0 0.0 0.00 1.08 0.60 96 1014.2
20260904230043 76 0 0.0 0.0 0.00 1.08 0.60 96 1014.3
20260904225519 76 0 0.0 0.0 0.00 1.08 0.60 96 1014.4
20260904225025 76 0 0.0 0.0 0.00 1.08 0.60 96 1014.5
20260904224541 76 0 0.0 4.0 0.01 1.08 0.60 96 1014.5
20260904224024 76 0 0.0 4.0 0.01 1.08 0.60 95 1014.3
20260904223524 76 0 0.0 2.0 0.01 1.08 0.60 95 1014.4
20260904223048 76 0 0.0 2.0 0.02 1.08 0.60 95 1014.0
20260904222526 75 70 1.0 2.0 0.04 1.08 0.60 95 1014.2
20260904222023 75 0 0.0 1.0 0.07 1.08 0.60 95 1014.0
20260904221547 75 0 0.0 2.0 0.08 1.08 0.60 95 1013.7
20260904221021 75 0 0.0 4.0 0.08 1.08 0.60 95 1013.1
20260904220523 75 266 0.0 4.0 0.08 1.08 0.60 95 1012.8
20260904220051 75 0 2.0 4.0 0.09 1.08 0.60 95 1012.9
20260904215518 75 284 1.0 7.0 0.09 1.08 0.60 95 1012.7
20260904215027 75 276 2.0 9.0 0.10 1.08 0.60 95 1012.9
20260904214548 76 266 5.0 9.0 0.18 1.07 0.58 95 1013.3
20260904214021 76 0 0.0 2.0 0.20 1.07 0.58 95 1013.5
20260904213527 76 0 0.0 3.0 0.19 1.05 0.58 95 1013.5
20260904213048 76 288 1.0 3.0 0.21 1.05 0.58 95 1013.7
20260904212524 76 0 0.0 2.0 0.20 1.04 0.56 95 1013.6
20260904212021 76 267 0.0 4.0 0.39 1.00 0.52 95 1013.8
20260904211544 76 0 0.0 11.0 0.42 1.00 0.52 95 1013.9
20260904211020 76 250 5.0 11.0 0.45 1.00 0.52 95 1014.0
20260904210520 77 259 3.0 8.0 0.45 1.00 0.52 95 1013.9
20260904210054 76 111 2.0 10.0 0.45 0.99 0.51 94 1013.8
20260904205524 76 126 3.0 10.0 0.45 0.99 0.51 94 1013.8
20260904205025 76 122 6.0 10.0 0.43 0.97 0.49 94 1013.9
20260904204548 77 96 3.0 6.0 0.36 0.88 0.40 94 1013.8
20260904204026 77 85 2.0 6.0 0.35 0.87 0.39 94 1013.8
20260904203525 77 74 1.0 8.0 0.36 0.87 0.39 93 1014.0
20260904203051 77 5 1.0 8.0 0.34 0.85 0.37 93 1013.8
20260904202522 77 36 3.0 9.0 0.31 0.82 0.34 92 1013.4
20260904202027 77 163 1.0 12.0 0.09 0.60 0.12 92 1013.5
20260904201544 77 153 5.0 12.0 0.06 0.57 0.09 91 1013.5
20260904201024 78 159 5.0 12.0 0.04 0.55 0.07 92 1013.1
20260904200524 78 159 2.0 12.0 0.04 0.55 0.07 90 1012.9
20260904200106 78 217 4.0 11.0 0.03 0.54 0.06 88 1013.4
20260904195523 79 189 4.0 11.0 0.03 0.54 0.06 88 1013.4
20260904195027 80 142 4.0 14.0 0.03 0.54 0.06 90 1013.3
20260904194545 81 246 4.0 14.0 0.01 0.52 0.04 88 1012.9
20260904194023 82 251 9.0 14.0 0.00 0.51 0.03 84 1013.1
20260904193526 84 267 5.0 10.0 0.00 0.51 0.03 83 1013.4
20260904193041 84 259 5.0 8.0 0.00 0.51 0.03 84 1013.5
20260904192523 85 265 4.0 10.0 0.00 0.51 0.03 84 1013.3
20260904192023 85 265 5.0 15.0 0.00 0.51 0.03 82 1013.2
20260904191547 85 280 9.0 15.0 0.00 0.51 0.03 81 1013.4
20260904191021 86 288 10.0 14.0 0.00 0.51 0.03 81 1013.4
20260904190524 87 284 9.0 14.0 0.00 0.51 0.03 78 1013.3
20260904190050 88 267 2.0 8.0 0.03 0.51 0.03 76 1013.4
20260904185525 89 253 3.0 8.0 0.03 0.51 0.03 73 1013.5
20260904185021 90 117 0.0 8.0 0.03 0.51 0.03 77 1013.5
20260904184542 89 265 2.0 6.0 0.03 0.51 0.03 78 1013.5
20260904184020 89 70 1.0 4.0 0.03 0.51 0.03 81 1013.6
20260904183519 89 0 2.0 4.0 0.03 0.51 0.03 82 1013.7
20260904183042 88 89 0.0 2.0 0.03 0.51 0.03 86 1014.0
20260904182535 87 0 0.0 0.0 0.03 0.51 0.03 89 1014.0
20260904182024 85 0 0.0 1.0 0.03 0.51 0.03 93 1014.1
20260904181549 84 0 0.0 4.0 0.03 0.51 0.03 90 1014.2
20260904181021 85 0 1.0 5.0 0.03 0.51 0.03 88 1014.3
20260904180524 85 78 1.0 5.0 0.03 0.51 0.03 88 1014.5
20260904180048 87 147 2.0 7.0 0.00 0.48 0.00 81 1014.4
20260904175520 87 110 2.0 7.0 0.00 0.48 0.00 77 1014.5
20260904175025 89 128 1.0 5.0 0.00 0.48 0.00 76 1014.5
20260904174542 89 0 1.0 6.0 0.00 0.48 0.00 78 1014.6
20260904174022 88 0 2.0 6.0 0.00 0.48 0.00 78 1014.7
20260904173525 89 162 2.0 7.0 0.00 0.48 0.00 75 1014.6
20260904173100 89 165 2.0 8.0 0.00 0.48 0.00 77 1014.8
20260904172524 87 165 3.0 8.0 0.00 0.48 0.00 79 1014.8
20260904172023 87 95 1.0 7.0 0.00 0.48 0.00 79 1014.9
20260904171546 88 0 2.0 7.0 0.00 0.48 0.00 81 1014.9